User: anonymous   Login
Location: Observatorio Las Palmas
(29.0667°N, 110.9333°W)
Time: 08:52:08
(UTC-07:00)
Language:

NOAA 19 - Orbit

View from above orbital plane
View from above orbital plane
View from above satellite
View from above satellite

Ground track
Ground track

The orbit data is extracted from the following two-line orbital elements,

1 33591U 09005A   15058.53810580  .00000212  00000-0  14031-3 0  9991
2 33591 098.9777 008.2292 0014896 117.0355 243.2338 14.11881028312020
Epoch (UTC): 27 February 2015 12:54:52
Eccentricity: 0.0014896
inclination: 98.9777°
perigee height: 842 km
apogee height: 864 km
right ascension of ascending node: 8.2292°
argument of perigee: 117.0355°
revolutions per day: 14.11881028
mean anomaly at epoch: 243.2338°
orbit number at epoch: 31202

The dashed part of the orbit path shows where the satellite is in the earth's shadow,  

DLR